Satellite-Ground Cal/Val Site Overpasses Predictions

Prediction of Satellite NPP Overpassing Cal/Val Site: Antarctic Dome C

Ground Cal/Val Site Location: Latitude: -75.10, Longitude: 123.35; Satellite-Ground Site NADIR distance within 100 km.

Table of predicted overpasses for the next 14.0 days since TLE Epoch: 10/30/2021
Interval Starting Time Ending Time Minimum Distance Time Minimum Distance (km)
1 10/30/2021 07:45:21 10/30/2021 07:45:41 10/30/2021 07:45:31 73.05
2 10/31/2021 07:26:30 10/31/2021 07:26:58 10/31/2021 07:26:44 34.51
3 11/03/2021 14:50:00 11/03/2021 14:50:30 11/03/2021 14:50:15 8.51
4 11/05/2021 07:32:53 11/05/2021 07:33:22 11/05/2021 07:33:08 2.83
5 11/08/2021 14:56:25 11/08/2021 14:56:53 11/08/2021 14:56:39 28.47
6 11/09/2021 14:37:42 11/09/2021 14:38:00 11/09/2021 14:37:51 78.80
7 11/10/2021 07:39:17 11/10/2021 07:39:44 11/10/2021 07:39:30 38.83
